Погода Радужный

Погода Радужный : погода сейчас, прогноз погоды и архив. Всё, что Вы хотите узнать о погоде Радужный!

Поиск расширенной информации на нашем сайте:

Другие новости

Новости СМИ2

Главная страница сайта

Новости сайта

03.07.2017

Напоминаем, что на нашем специализированном сайте Метеоцентр.Азия вы можете получить высокодетализированные автоматические прогнозы погоды по пунктам России, СНГ и мира в авиационном формате (включающие направление и скорость ветра, видимость, явления погоды, количество и форму облачности, нижнюю и верхнюю границу облачности).

Рекомендуем: Смотрите подробности stanley finance отзывы клиентов у нас на сайте.

Погода Радужный - сегодня

Время (UTC), дата Ветер
(°,м/с) 
Видим.   Явления Облачность Т
(°С)
Тd
(°С)
f(%) Тe
(°С)
Pmin
(гПа)
dP
(гПа)
Po
(мм)
O2
(г/м3)
Тmin Tmax R s Состояние
почвы
06 09.12.17 140 (ЮВ) 10 км    6/0 верхняя 
[Ci fib]
-14.6 -17.3 80 -17  1026.8  0.2  763  326  -14.7         
09 09.12.17 130 (ЮВ) 10 км    6/0 верхняя 
[Ci fib]
-13.5 -16.2 80 -16  1026.3  -0.5  763  325           
12 09.12.17 120 (ЮВ) 10 км    4/0 верхняя 
[Ci fib]
-14 -15.9 85 -16  1025.4  -0.9  762  325           
15 09.12.17 100 (В) 10 км    4/0 верхняя 
[Ci fib]
-15.4 -17.2 86 -18  1024.1  -1.3  761  327    -13.1       
18 09.12.17 100 (В) 10 км    3/0 верхняя 
[Ci fib]
-15.3 -17.1 86 -18  1021.1  -2.9  759  325           
21 09.12.17 120 (ЮВ) 10 км    3/0 
-15.7 -17.6 85 -21        322           
00 10.12.17 120 (ЮВ) 10 км    4/0 верхняя 
[Ci fib]
-16.4 -18.5 84 -20  1018.9  -1.1  757  326           
03 10.12.17 110 (В) 10 км    6/0 верхняя 
[Ci fib]
-17.6 -19.6 84 -18  1018.8  0.1  757  328  -17.6      23  равномерный
сухой снег
100% 
06 10.12.17 120 (ЮВ) 10 км    10/0 средняя, верхняя 
[Ac trans|Ci fib]
-16.8 -19 83 -19  1018.7  -0.1  757  327  -17.7         
09 10.12.17 140 (ЮВ) 10 км    4/0 средняя, верхняя 
[Ac trans|Ci fib]
-17.8 -19.9 84 -20  1019.1  0.4  757  328           
12 10.12.17 200 (Ю) 10 км  [диам. изморози 2 мм]  10/0 средняя, верхняя 
[Ac trans|Ci fib]
-17.1 -19.3 83 -17  1019.3  0.2  758  327           
15 10.12.17 180 (Ю) 10 км  [диам. изморози 2 мм]  10/0 средняя, верхняя 
[Ac trans|Ci fib]
-15.1 -17.2 84 -19  1020.6  1.3  759  325    -15.1       
18 10.12.17 200 (Ю) 10 км  {ливн. осадки}  10/8 210 м кучево-дожд., средняя 
[Cb cap|Ac und]
-14.8 -17 83 -17  1021.7  1.1  759  325           
21 10.12.17 210 (ЮЗ) 10 км    10/8 270 м средняя 
[Frnb|Ac und]
-14.6 -16.7 84 -15  1022.6  0.9  760  325           
00 11.12.17 330 (СЗ) 10 км    10/8 240 м средняя 
[Frnb|Ac und]
-13.9 -16.1 83 -14  1023.7  1.1  761  324           
03 11.12.17 360 (С) 4000 м  слаб. ливневой снег  10/8 210 м кучево-дожд., средняя 
[Cb cap|Ac und]
-13.7 -15.6 86 -14  1025.3  1.6  762  325  -15.3    0.2  23  равномерный
сухой снег
100% 
06 11.12.17 010 (С) 10 км  {ливн. осадки}  10/6 420 м кучево-дожд., средняя 
[Cb cap|Ac und]
-14.2 -16.7 81 -16  1026.6  1.3  763  326           
09 11.12.17 030 (СВ) 10 км    8/3 600 м средняя 
[Sc|Ac trans]
-16.1 -18.9 79 -18  1028.9  2.2  765  329           
12 11.12.17 020 (С) 10 км    10/0 верхняя 
[Cs]
-21.2 -23.4 82 -22  1030.9  1.8  766  336           
15 11.12.17 020 (С) 10 км    10/0 верхняя 
[Cs]
-24.3 -26.9 79 -25  1031.8  0.7  767  341    -13.7  0.0     
18 11.12.17 320 (СЗ) 10 км    10/0 верхняя 
[Cs]
-25.6 -28.4 77 -26  1032.7  0.9  767  343           
21 11.12.17 260 (З) 10 км    10/0 верхняя 
[Cs]
-24.8 -27.5 78 -25  1033.1  0.4  768  342           
00 12.12.17 250 (З) 10 км    4/0 верхняя 
[Ci fib]
-26 -29 76 -27  1033.1  768  344           
03 12.12.17 240 (ЮЗ) 10 км    10/0 средняя 
[As trans]
-21 -23.4 81 -21  1033.3  0.4  768  337  -26      23  равномерный
сухой снег
100% 
06 12.12.17 250 (З) 10 км    10/0 средняя 
[As trans]
-17.1 -19.2 84 -17  1033.3  0.2  768  332           
Время (UTC), дата Ветер
(°,м/с) 
Видим.   Явления Облачность Т
(°С)
Тd
(°С)
f(%) Тe
(°С)
Pmin
(гПа)
dP
(гПа)
Po
(мм)
O2
(г/м3)
Тmin Tmax R s Состояние
почвы

Для получения пояснительной информации подведите курсор к названию столбца.

ПОГОДА Радужный - архив

Всё, что Вы хотите узнать о погоде Радужный - удобно и подробно!

Выберите нужную дату (начиная с 1 января 2015* года) и нажмите кнопку "Найти".
Будут отображены архивные сводки погоды по пункту Радужный, начиная с указанной даты.


Отображать данные в формате CSV (для использования в таблицах Excel)


Внимание! Наш архив погоды предназначен исключительно для личного некоммерческого использования в познавательных целях. Если Вам необходимы официальные справки о состоянии погоды (для производственных, юридических, коммерческих и т.п. целей), обращайтесь в органы Росгидромета.

*Примечание: данная дата относится к архиву по метеостанциям СССР (Россия, СНГ, Балтия).
Архив по метеостанциям Зарубежной Европы и Азии (кроме Китая) хранится 10 дней, по другим регионам земного шара (Китай, Африка, Америка, Австралия, Океания) - 1 день.

Радужный - район местоположения метеостанции


Название, широта, долгота, высота метеостанции:
Радужный 62.1°ш. 77.3°д. 73 м над ур. моря [Российская Федерация]

Дополнительная информация

В oтличие oт бoльшинства пoгoдных сайтoв мы публикуем пoдрoбную метеoинфoрмацию в детальнoм прoфессиoнальнoм фoрмате.

Характеристики температуры и влажнoсти вoздуха измеряются на высoте 2 м в тени вдали oт зданий и деревьев.
Скoрoсть ветра измеряется на высoте 10 м (на урoвне рoста челoвека скoрoсть ветра ниже в 1.5-2 раза). Если метеoстанция нахoдится в гoрoде или в лесу, тo скoрoсть ветра занижена на 2-4 м/с пo сравнению с oткрытым местoм. Скoрoсть ветра над акватoриями крупных рек и oзёр, а также на вершинах хoлмoв на 2-5 м/с выше, чем в oбычных услoвиях.
Атмoсфернoе давление в разных тoчках местнoсти мoжет значительнo oтличаться oт давления на метеoстанции, в зависимoсти oт услoвий рельефа (при пoдъёме на 10 м давление пoнижается примернo на 1 мм рт.ст.).